Location: Sevilla
(37.3933°N, 5.9839°W)
Time: 05:10:17
(UTC+02:00)

Transit 2A - Pass Details

Date: 27 June 2024
Orbit: 591 x 960 km, 66.7° (Epoch: 15 July)

Event Time Altitude Azimuth Distance (km) Brightness Sun altitude
Rises 23:06:00 0° 348° (NNW) 3,538 10.4 -13.1°
Reaches altitude 10° 23:10:40 10° 20° (NNE) 2,655 9.1 -13.7°
Maximum altitude 23:12:41 12° 39° (NE) 2,559 8.8 -14.0°
Drops below altitude 10° 23:14:43 10° 59° (ENE) 2,684 8.7 -14.3°
Enters shadow 23:18:08 - 83° (E) 3,298 8.9 -14.8°
Sets 23:19:30 0° 90° (E) 3,637 - -15.0°
